• In Hungary
  • List of Countries
  • For 7 days
  • Water Temperature
  • Satellite Maps
  • Weather Map
  • News
  • Weather Widgets
  • user-avatar
    Login

    Hourly Weather Santa Elena

    Today, 20 October, Friday

    Time Temperature Precipitation Wind Pressure Humidity
    00:00 +22°C° 0 mm 4 mps 758 mmHg 86%
    01:00 +22°C° 0 mm 4 mps 757 mmHg 86%
    02:00 +22°C° 0 mm 4 mps 757 mmHg 86%
    03:00 +22°C° 0 mm 3 mps 757 mmHg 87%
    04:00 +22°C° 0 mm 3 mps 757 mmHg 87%
    05:00 +22°C° 0 mm 3 mps 757 mmHg 87%
    06:00 +22°C° 0 mm 3 mps 757 mmHg 86%
    07:00 +22°C° 0 mm 3 mps 758 mmHg 86%
    08:00 +24°C° 0 mm 3 mps 758 mmHg 81%
    09:00 +26°C° 0 mm 3 mps 758 mmHg 75%
    10:00 +27°C° 0 mm 2 mps 758 mmHg 69%
    11:00 +28°C° 0 mm 3 mps 757 mmHg 65%
    12:00 +30°C° 0 mm 4 mps 757 mmHg 60%
    13:00 +32°C° 0 mm 4 mps 756 mmHg 55%
    14:00 +30°C° 0 mm 5 mps 756 mmHg 58%
    15:00 +29°C° 0 mm 5 mps 755 mmHg 61%
    16:00 +29°C° 0 mm 5 mps 755 mmHg 64%
    17:00 +27°C° 0 mm 5 mps 755 mmHg 71%
    18:00 +26°C° 0 mm 5 mps 756 mmHg 77%
    19:00 +23°C° 0 mm 5 mps 756 mmHg 83%
    20:00 +23°C° 0.1 mm 5 mps 757 mmHg 84%
    21:00 +23°C° 0.1 mm 5 mps 758 mmHg 84%
    22:00 +23°C° 0.1 mm 4 mps 758 mmHg 84%
    23:00 +23°C° 0 mm 4 mps 758 mmHg 84%

    Tomorrow, 21 October, Saturday

    Time Temperature Precipitation Wind Pressure Humidity
    00:00 +23°C° 0 mm 4 mps 758 mmHg 85%
    01:00 +22°C° 0 mm 4 mps 758 mmHg 85%
    02:00 +22°C° 0.1 mm 4 mps 758 mmHg 86%
    03:00 +22°C° 0.1 mm 4 mps 757 mmHg 86%
    04:00 +22°C° 0.1 mm 3 mps 757 mmHg 87%
    05:00 +22°C° 0 mm 3 mps 757 mmHg 86%
    06:00 +22°C° 0 mm 3 mps 758 mmHg 86%
    07:00 +22°C° 0 mm 3 mps 758 mmHg 86%
    08:00 +25°C° 0 mm 3 mps 758 mmHg 79%
    09:00 +27°C° 0 mm 3 mps 758 mmHg 71%
    10:00 +28°C° 0 mm 2 mps 759 mmHg 64%
    11:00 +29°C° 0 mm 3 mps 758 mmHg 60%
    12:00 +32°C° 0 mm 4 mps 758 mmHg 57%
    13:00 +33°C° 0 mm 4 mps 757 mmHg 53%
    14:00 +32°C° 0 mm 5 mps 757 mmHg 56%
    15:00 +30°C° 0 mm 5 mps 756 mmHg 58%
    16:00 +30°C° 0 mm 5 mps 756 mmHg 61%
    17:00 +28°C° 0 mm 5 mps 756 mmHg 67%
    18:00 +26°C° 0 mm 5 mps 757 mmHg 74%
    19:00 +25°C° 0 mm 5 mps 757 mmHg 80%
    20:00 +25°C° 0 mm 4 mps 758 mmHg 81%
    21:00 +23°C° 0 mm 4 mps 758 mmHg 83%
    22:00 +23°C° 0 mm 4 mps 759 mmHg 84%
    23:00 +23°C° 0 mm 4 mps 759 mmHg 85%

    Day after tomorrow, 22 October, Sunday

    Time Temperature Precipitation Wind Pressure Humidity
    00:00 +23°C° 0 mm 4 mps 759 mmHg 85%
    01:00 +23°C° 0 mm 4 mps 759 mmHg 86%
    02:00 +24°C° 0 mm 3 mps 758 mmHg 86%
    03:00 +24°C° 0 mm 3 mps 758 mmHg 86%
    04:00 +24°C° 0 mm 3 mps 758 mmHg 85%
    05:00 +24°C° 0 mm 2 mps 758 mmHg 85%
    06:00 +24°C° 0 mm 2 mps 758 mmHg 84%
    07:00 +24°C° 0 mm 2 mps 759 mmHg 84%
    08:00 +26°C° 0 mm 2 mps 759 mmHg 76%
    09:00 +27°C° 0 mm 2 mps 759 mmHg 68%
    10:00 +29°C° 0 mm 3 mps 759 mmHg 60%
    11:00 +30°C° 0 mm 3 mps 759 mmHg 57%
    12:00 +32°C° 0 mm 4 mps 758 mmHg 54%
    13:00 +33°C° 0 mm 5 mps 757 mmHg 51%
    14:00 +32°C° 0 mm 5 mps 757 mmHg 54%
    15:00 +30°C° 0 mm 5 mps 756 mmHg 57%
    16:00 +30°C° 0 mm 5 mps 756 mmHg 59%
    17:00 +28°C° 0 mm 5 mps 757 mmHg 66%
    18:00 +26°C° 0 mm 5 mps 757 mmHg 73%
    19:00 +25°C° 0 mm 5 mps 758 mmHg 80%
    20:00 +25°C° 0 mm 5 mps 759 mmHg 81%
    21:00 +23°C° 0 mm 4 mps 759 mmHg 82%
    22:00 +23°C° 0 mm 4 mps 760 mmHg 83%
    23:00 +23°C° 0 mm 4 mps 760 mmHg 83%

    23 October, Monday

    Time Temperature Precipitation Wind Pressure Humidity
    00:00 +24°C° 0 mm 3 mps 759 mmHg 84%
    01:00 +24°C° 0 mm 3 mps 759 mmHg 84%
    02:00 +24°C° 0 mm 3 mps 759 mmHg 85%
    03:00 +24°C° 0 mm 3 mps 758 mmHg 85%
    04:00 +22°C° 0 mm 3 mps 758 mmHg 85%
    05:00 +22°C° 0 mm 3 mps 759 mmHg 85%
    06:00 +24°C° 0 mm 3 mps 759 mmHg 85%
    07:00 +24°C° 0 mm 3 mps 759 mmHg 84%
    08:00 +24°C° 0 mm 3 mps 759 mmHg 80%
    09:00 +25°C° 0 mm 4 mps 760 mmHg 75%
    10:00 +26°C° 0 mm 4 mps 760 mmHg 71%
    11:00 +27°C° 0 mm 4 mps 759 mmHg 68%
    12:00 +28°C° 0 mm 5 mps 759 mmHg 65%
    13:00 +29°C° 0 mm 5 mps 758 mmHg 61%
    14:00 +28°C° 0 mm 5 mps 758 mmHg 62%
    15:00 +28°C° 0 mm 5 mps 757 mmHg 63%
    16:00 +28°C° 0 mm 5 mps 757 mmHg 64%
    17:00 +27°C° 0 mm 5 mps 757 mmHg 70%
    18:00 +25°C° 0 mm 4 mps 758 mmHg 75%
    19:00 +23°C° 0 mm 4 mps 758 mmHg 81%
    20:00 +23°C° 0 mm 4 mps 758 mmHg 82%
    21:00 +23°C° 0 mm 4 mps 759 mmHg 83%
    22:00 +23°C° 0 mm 4 mps 759 mmHg 84%
    23:00 +23°C° 0 mm 4 mps 759 mmHg 85%

    24 October, Tuesday

    Time Temperature Precipitation Wind Pressure Humidity
    00:00 +22°C° 0 mm 4 mps 759 mmHg 86%
    01:00 +22°C° 0 mm 4 mps 758 mmHg 87%
    02:00 +22°C° 0 mm 4 mps 758 mmHg 87%
    03:00 +22°C° 0 mm 4 mps 758 mmHg 87%
    04:00 +22°C° 0 mm 4 mps 757 mmHg 87%
    05:00 +22°C° 0 mm 4 mps 758 mmHg 86%
    06:00 +22°C° 0 mm 4 mps 758 mmHg 86%
    07:00 +23°C° 0 mm 4 mps 758 mmHg 85%
    08:00 +25°C° 0 mm 4 mps 759 mmHg 79%
    09:00 +26°C° 0 mm 4 mps 759 mmHg 74%
    10:00 +27°C° 0 mm 4 mps 759 mmHg 68%
    11:00 +28°C° 0 mm 5 mps 758 mmHg 63%
    12:00 +30°C° 0 mm 5 mps 758 mmHg 59%
    13:00 +32°C° 0 mm 5 mps 757 mmHg 54%
    14:00 +30°C° 0 mm 5 mps 756 mmHg 57%
    15:00 +29°C° 0 mm 5 mps 756 mmHg 60%
    16:00 +29°C° 0 mm 5 mps 755 mmHg 63%
    17:00 +27°C° 0 mm 5 mps 756 mmHg 69%
    18:00 +26°C° 0 mm 5 mps 757 mmHg 74%
    19:00 +25°C° 0 mm 5 mps 758 mmHg 80%
    20:00 +23°C° 0 mm 5 mps 758 mmHg 81%
    21:00 +23°C° 0 mm 5 mps 759 mmHg 82%
    22:00 +23°C° 0 mm 5 mps 759 mmHg 84%
    23:00 +22°C° 0 mm 4 mps 759 mmHg 84%

    25 October, Wednesday

    Time Temperature Precipitation Wind Pressure Humidity
    00:00 +22°C° 0 mm 4 mps 759 mmHg 85%
    01:00 +22°C° 0 mm 4 mps 758 mmHg 86%
    02:00 +22°C° 0 mm 4 mps 758 mmHg 86%
    03:00 +22°C° 0 mm 4 mps 758 mmHg 86%
    04:00 +22°C° 0 mm 3 mps 758 mmHg 86%
    05:00 +22°C° 0 mm 3 mps 758 mmHg 86%
    06:00 +22°C° 0 mm 3 mps 758 mmHg 85%
    07:00 +22°C° 0 mm 3 mps 759 mmHg 84%
    08:00 +25°C° 0 mm 3 mps 759 mmHg 77%
    09:00 +26°C° 0 mm 3 mps 759 mmHg 70%
    10:00 +28°C° 0 mm 4 mps 759 mmHg 62%
    11:00 +29°C° 0 mm 4 mps 759 mmHg 59%
    12:00 +30°C° 0 mm 4 mps 758 mmHg 56%
    13:00 +32°C° 0 mm 5 mps 757 mmHg 53%
    14:00 +30°C° 0 mm 5 mps 757 mmHg 57%
    15:00 +29°C° 0 mm 5 mps 757 mmHg 61%
    16:00 +28°C° 0 mm 5 mps 756 mmHg 64%
    17:00 +27°C° 0 mm 5 mps 757 mmHg 70%
    18:00 +25°C° 0 mm 4 mps 757 mmHg 76%
    19:00 +23°C° 0 mm 4 mps 758 mmHg 81%
    20:00 +23°C° 0 mm 4 mps 759 mmHg 82%
    21:00 +24°C° 0 mm 3 mps 759 mmHg 82%
    22:00 +24°C° 0 mm 3 mps 760 mmHg 82%
    23:00 +24°C° 0 mm 3 mps 759 mmHg 83%
    Show more